{"data":{"norad_id":56071,"intl_designator":"2023-043AB","name":"ONEWEB-0613","alt_names":[],"object_type":"PAYLOAD","status":"ACTIVE","operator":null,"country":"UK","launch_date":"2023-03-26","launch_site_code":"SRILR","launch_vehicle":null,"mission":null,"orbit_class":"UNKNOWN","rcs_meters":null,"size_class":null,"mass_kg":null,"dimensions":null,"purposes":["comms"],"wikipedia_slug":null,"has_3d_model":false,"image_url":null,"decayed_at":null,"tle_current":{"epoch":"2026-05-25T01:22:54.778944Z","epoch_age_seconds":66750,"freshness":"FRESH","line1":"1 56071U 23043AB  26145.05757846 -.00000133  00000+0 -38750-3 0  9995","line2":"2 56071  87.8988 263.8333 0001640  96.9208 263.2109 13.15548536153397","mean_motion":13.15548536,"eccentricity":0.000164,"inclination_deg":87.8988,"raan_deg":263.8333,"arg_perigee_deg":96.9208,"mean_anomaly_deg":263.2109,"bstar":-0.0003875,"rev_number":15339,"period_min":109.46004351754,"perigee_km":1200.5277163555,"apogee_km":1203.0139261209,"semimajor_km":7579.9078212382,"source":"CELESTRAK","updated_at":"2026-05-25T13:38:22.705415Z"}}}